Starlink 31146

operational
NORAD ID: 58769 Int'l Des: 2024-011 Owner: SPXS Country: US Constellation: starlink
LEOCIRCULAR

Über Starlink 31146

Beschreibung wird geladen...

Live-Position

3D-Globus wird geladen...

Nächste Überflüge

Höhenverlauf

Altitude vs Time

uPlot chart will show altitude changes over time

Zweizeiliger Elementsatz

1 58769U 24011E 25258.00855311 .00001697 00000-0 69396-4 0 9998
2 58769 53.1590 109.6349 0001050 80.9567 279.1552 15.30197211 93376
Epoch: 15. Sept. 2025 • Age: 21 hours

Aktueller Status

Höhe 486.8 km
Geschwindigkeit 7.62 km/s
Subsatellitenpunkt -34.65°S, 2.04°W
Startdatum 14. Jan. 2024
Alter 1.6 years
Typ internet

Technische Details

Klassifizierung Payload
Masse 730.00 kg
Trockenmasse 700.00 kg
Gesamtmasse 730.00 kg
Länge 0.30 m
Durchmesser 4.10 m
Spannweite 29.00 m
Form Box + pan
Hersteller SPXS
Bus-Typ Starlink V2M
Phasenstatus In Orbit
Besitzer/Staat SPXS/US

Große Konstellationen

Loading constellations...